GFSFLT2_prec_cloud_003.txt.gz
Cloud_Cover
5 5 5 5 5 5 98 100 99 12 49 23 100 100 100 100 100 100 100 100 100 100 100 100 100 100 100
5 4 4 5 5 5 76 81 5 2 5 100 100 100 100 100 100 100 100 59 99 100 100 100 100 100 100
11 5 6 5 19 99 10 0 1 4 4 6 100 100 100 100 100 100 100 100 100 100 100 100 100 100 100
89 67 5 72 74 23 2 5 5 5 74 52 66 71 44 100 100 100 100 100 100 100 100 100 92 100 100
92 99 89 6 5 5 61 58 76 27 55 5 70 29 15 11 8 18 100 100 100 100 100 100 100 100 100
100 63 5 5 34 100 100 100 98 100 100 77 53 69 64 5 32 100 100 100 100 100 100 100 100 100 100
91 6 95 91 100 93 100 100 100 100 98 100 51 5 5 5 14 91 100 100 100 100 100 100 100 100 100
88 88 100 100 100 100 100 100 100 100 100 100 58 96 58 5 8 38 99 100 100 100 100 100 100 100 100
96 78 21 44 100 100 100 100 100 100 100 100 98 97 100 24 5 6 100 100 100 100 100 100 100 100 100
5 6 62 85 100 100 100 100 100 100 100 100 100 98 100 24 5 5 7 8 100 100 100 100 100 100 100
10 75 86 79 97 98 100 100 100 100 88 100 100 94 100 100 31 31 32 100 97 100 100 100 100 100 100
100 100 92 98 100 98 98 100 100 100 100 100 100 100 100 98 100 88 100 100 99 100 100 100 100 100 100
100 100 100 100 84 100 100 100 100 100 100 100 100 99 100 100 100 96 100 88 96 100 100 100 100 100 100
100 100 100 100 100 100 100 100 100 100 100 99 100 100 98 100 100 100 100 100 100 100 100 100 100 100 100
100 100 100 100 100 100 100 99 100 100 100 97 94 100 99 100 100 100 100 100 100 100 100 100 100 100 100
100 100 100 100 100 98 100 100 100 97 98 89 93 100 100 100 100 100 100 100 100 100 100 100 100 100 100
100 100 100 100 100 100 100 100 100 99 100 100 100 100 100 100 100 100 100 100 100 100 100 100 100 100 100

GFSFLT2_prec_cloud_006.txt.gz
Cloud_Cover
5 5 5 0 5 5 15 95 63 70 49 28 86 100 100 100 100 100 100 100 100 100 100 100 100 100 100
5 5 5 5 5 5 5 16 52 2 5 100 100 100 100 100 100 100 100 100 100 100 100 100 100 100 100
10 5 5 14 57 8 6 5 5 7 91 90 100 100 100 100 100 100 100 100 100 100 100 100 100 100 100
19 70 97 53 75 5 5 5 66 100 32 93 99 100 100 100 100 100 100 100 100 100 100 100 100 100 100
98 92 53 5 5 5 95 100 100 99 47 14 56 55 28 22 13 33 99 100 100 100 100 100 100 100 100
95 78 11 5 6 100 100 100 90 98 100 100 89 92 34 5 30 100 100 100 100 100 100 100 100 100 100
5 7 85 78 100 99 100 100 100 100 100 100 75 100 99 100 100 97 100 100 100 100 100 100 100 100 100
48 78 100 100 100 100 99 100 100 92 100 100 65 87 82 99 100 99 100 100 100 100 100 100 100 100 100
96 56 24 62 100 100 92 100 100 100 80 100 98 97 99 67 29 28 100 100 98 100 100 100 100 100 100
5 5 5 5 70 89 100 100 100 100 61 100 93 99 100 100 78 99 100 18 98 100 100 100 100 100 100
50 28 67 5 11 68 100 100 100 100 84 100 100 99 100 84 100 99 99 49 50 57 100 100 100 100 100
99 100 76 78 74 79 78 80 100 100 85 100 100 100 100 100 100 100 100 100 86 94 100 100 100 100 100
100 100 100 85 66 93 54 45 100 100 81 86 100 100 100 100 99 98 100 100 100 100 100 100 100 100 100
100 100 100 92 92 91 100 99 100 100 100 97 100 100 100 100 100 100 100 100 100 100 100 100 100 100 100
100 100 100 100 96 98 99 99 100 100 100 95 93 100 100 99 100 100 100 100 100 100 100 100 100 100 100
100 100 100 100 100 91 99 100 100 100 100 94 97 100 100 100 100 100 100 100 100 100 100 100 100 100 100
100 100 100 96 100 100 99 100 100 100 100 98 100 100 100 88 67 100 100 100 100 100 100 100 100 100 100

GFSFLT2_prec_cloud_009.txt.gz
Cloud_Cover
5 5 5 5 5 89 100 92 87 100 100 100 100 100 100 100 100 100 100 100 100 100 100 100 100 100 100
5 5 5 55 99 96 100 99 78 28 99 100 100 100 100 100 100 100 100 100 100 100 100 100 100 100 100
8 5 84 92 74 27 13 5 16 100 90 100 100 100 100 100 100 100 100 100 100 100 100 100 100 100 100
100 77 28 5 5 5 5 11 99 93 59 100 100 100 100 100 100 100 100 100 100 100 100 100 100 100 100
100 64 10 5 10 48 99 94 79 96 46 86 16 58 5 73 96 100 100 100 100 100 100 100 100 100 100
99 62 5 98 37 100 100 100 97 48 100 100 46 41 5 8 88 100 100 100 100 100 100 100 100 100 100
7 37 99 91 100 99 100 99 100 51 99 100 16 78 5 52 75 100 100 100 100 100 100 100 100 100 100
96 73 100 100 100 100 97 100 92 15 93 98 14 78 76 98 100 100 100 100 100 100 100 100 100 100 100
97 84 33 45 100 100 92 100 100 59 40 100 92 99 98 99 82 100 100 100 100 100 100 100 100 100 100
5 5 5 5 66 95 100 100 100 100 35 100 96 100 92 70 100 100 100 100 100 100 100 100 100 100 100
10 52 65 60 5 79 100 100 100 100 83 100 96 92 100 84 91 98 100 87 98 94 100 100 100 100 100
99 100 82 81 70 71 91 100 100 100 81 100 98 100 100 100 100 100 100 100 100 100 100 100 100 100 100
100 100 100 91 89 100 79 90 100 100 88 88 100 98 100 100 100 100 98 100 100 100 100 100 100 97 99
100 98 96 89 100 100 100 100 100 43 100 96 93 100 99 96 100 91 100 100 100 100 100 100 100 100 100
100 100 99 100 93 99 100 100 100 100 99 100 96 89 95 77 81 100 100 100 100 100 100 100 96 100 100
100 100 100 100 100 93 100 100 100 100 100 98 93 100 97 100 89 100 100 100 100 100 100 100 100 100 100
100 100 100 100 100 100 100 100 100 100 100 99 100 100 98 99 92 100 100 100 100 100 100 100 100 100 100

GFSFLT2_prec_cloud_012.txt.gz
Cloud_Cover
0 4 5 61 94 100 98 80 5 75 84 76 100 100 100 100 100 100 100 100 100 100 100 100 100 100 100
5 5 66 100 100 100 100 57 25 5 36 86 100 100 100 100 100 100 100 100 100 100 100 100 100 100 100
5 9 96 100 95 30 63 65 97 100 96 100 100 100 100 100 100 100 100 100 100 100 100 100 100 100 100
63 78 98 46 93 36 92 86 100 100 32 100 96 98 100 94 90 100 100 100 100 100 100 100 100 100 100
100 94 7 36 62 84 100 96 69 100 10 82 65 5 5 41 95 100 100 100 100 100 100 100 100 100 100
91 98 95 90 100 100 100 98 88 48 100 100 76 16 5 5 76 100 100 100 100 100 100 100 100 100 100
100 100 100 99 98 95 90 94 100 27 96 96 27 34 5 5 71 100 100 100 100 100 100 100 100 100 100
100 100 99 100 100 99 100 100 98 85 100 92 5 51 5 50 74 80 98 100 100 100 100 100 100 100 100
100 100 100 100 100 100 89 100 99 91 69 100 95 84 79 73 85 92 90 100 100 100 100 100 100 100 100
100 67 94 100 100 100 100 100 100 100 54 100 94 99 95 89 34 55 100 100 100 100 100 100 100 100 100
100 100 100 100 90 96 100 100 100 100 20 100 100 88 100 77 77 50 93 92 98 100 100 100 100 100 100
98 100 99 84 89 83 92 95 100 100 62 98 100 100 100 100 98 54 87 98 77 77 89 100 100 100 100
100 94 100 76 89 98 94 99 99 94 77 73 100 100 100 100 99 92 96 100 100 96 100 100 100 100 100
100 100 99 96 86 100 100 100 100 76 95 42 90 99 99 100 100 100 100 99 87 95 100 100 100 100 100
100 100 100 100 100 100 100 98 100 100 80 58 88 100 98 100 100 84 42 88 100 100 100 100 100 100 100
100 100 100 100 100 88 100 100 100 100 100 87 90 94 98 100 96 100 100 98 100 100 100 100 95 100 100
100 100 100 97 100 100 100 100 97 99 100 100 100 100 100 90 63 93 100 100 100 100 100 100 100 100 100

GFSFLT2_prec_cloud_015.txt.gz
Cloud_Cover
0 0 3 3 5 26 5 2 4 5 46 94 100 100 100 100 100 100 100 100 100 100 100 100 100 100 100
5 5 5 1 21 26 5 5 5 5 91 100 100 100 100 100 100 100 100 100 100 100 100 100 100 100 100
5 5 4 5 95 12 5 11 5 5 18 18 100 75 100 100 100 100 100 100 100 100 100 100 100 100 100
5 5 33 100 72 15 5 5 5 5 5 5 87 17 99 55 94 100 100 100 100 100 100 100 100 100 100
68 99 61 13 18 50 24 75 5 87 7 5 61 5 5 6 6 76 100 100 100 100 100 100 100 100 100
100 78 32 5 70 73 63 100 93 63 100 87 6 5 5 5 42 100 100 100 100 100 100 100 100 100 100
93 99 64 5 51 25 100 95 95 6 47 42 16 5 5 5 25 92 97 100 100 100 100 100 100 100 100
100 43 6 71 100 100 97 33 30 5 99 96 16 5 5 5 27 53 100 100 96 98 100 100 100 100 100
71 95 100 100 99 100 8 91 85 100 88 100 41 23 27 11 77 100 36 14 5 9 71 100 100 100 100
7 6 35 14 99 99 94 100 100 100 26 99 94 96 90 100 83 95 6 5 5 5 94 78 100 100 100
5 5 5 29 88 33 97 100 100 99 58 100 100 99 100 100 100 97 58 5 5 79 100 100 100 100 100
66 33 81 83 78 85 21 87 100 100 94 100 100 100 100 97 100 78 20 11 67 48 99 100 100 100 100
100 78 63 13 5 78 97 100 99 99 80 100 100 100 100 100 100 90 95 97 100 100 100 99 100 100 100
74 53 76 83 95 98 100 98 100 47 97 100 100 100 100 100 100 100 100 100 95 96 97 98 100 100 100
100 100 100 100 100 100 100 100 100 100 92 82 83 93 100 98 100 59 86 100 70 72 96 99 100 100 100
100 100 100 100 100 90 100 100 100 100 100 90 95 96 53 96 100 98 100 62 99 98 100 100 94 100 100
100 100 100 100 100 100 100 100 100 100 97 100 100 100 100 95 21 100 100 98 100 100 98 100 100 100 100

GFSFLT2_prec_cloud_018.txt.gz
Cloud_Cover
0 3 5 5 5 2 2 5 4 4 5 69 100 100 100 100 100 100 100 100 100 100 100 100 100 100 100
5 5 5 3 0 5 5 5 0 4 61 78 84 100 100 100 100 100 100 100 100 100 100 100 100 100 100
5 5 3 3 5 5 4 0 5 0 5 5 8 58 64 100 100 100 100 100 100 100 100 100 100 100 100
5 46 83 30 65 5 4 5 0 2 0 5 27 5 5 15 34 74 100 100 100 100 100 100 100 100 100
81 83 99 11 11 50 7 5 2 5 45 4 5 2 0 5 5 5 100 100 100 100 100 100 100 100 100
100 87 6 54 99 5 5 6 88 20 5 5 5 5 5 5 5 92 100 100 100 100 100 100 100 100 100
23 56 99 69 28 43 71 100 100 10 77 52 5 5 5 5 5 76 99 97 93 97 100 100 100 100 100
99 97 98 77 100 100 99 82 5 5 67 97 5 9 5 5 5 5 5 100 93 100 92 99 100 100 100
51 97 100 100 100 100 48 69 94 77 72 100 10 39 29 5 4 66 56 99 50 13 98 93 100 100 100
5 2 2 5 6 26 83 100 100 96 24 100 86 100 82 5 5 46 79 95 5 5 34 86 71 89 63
5 5 5 5 5 5 15 98 100 98 73 100 100 100 100 77 22 5 5 13 16 47 5 5 21 61 96
5 5 26 5 5 5 5 76 86 97 59 98 100 99 100 99 98 9 5 5 60 56 6 13 100 100 100
99 66 5 5 5 57 5 57 61 92 88 98 100 99 100 100 100 74 93 36 54 38 70 77 90 81 100
63 83 89 100 95 94 100 91 100 29 96 87 74 100 100 97 100 96 93 100 76 86 83 100 100 100 97
100 100 95 100 99 96 100 100 100 100 81 18 40 14 95 98 100 88 100 89 97 98 100 100 98 100 69
100 100 100 100 100 92 99 100 100 99 100 66 77 92 29 71 100 93 75 70 77 86 100 100 98 75 95
100 100 100 100 100 100 100 100 99 100 73 74 100 100 100 100 100 100 100 97 87 88 49 100 100 100 100

GFSFLT2_prec_cloud_021.txt.gz
Cloud_Cover
0 0 0 0 0 0 0 0 2 2 5 9 96 98 100 96 100 100 100 100 100 100 100 100 100 100 100
0 4 1 0 0 4 5 5 2 0 5 6 5 94 80 100 100 100 100 100 100 100 100 100 100 100 100
5 5 5 5 15 8 5 5 5 2 2 4 5 5 91 67 95 100 100 100 100 100 100 100 100 100 100
72 5 5 5 48 5 5 5 5 0 1 5 37 5 5 5 6 5 29 100 99 100 100 100 100 100 100
16 26 98 52 5 5 5 5 5 5 5 32 5 5 5 4 5 5 90 99 100 100 100 100 100 100 100
98 96 16 5 5 5 5 12 97 8 76 69 5 5 5 5 8 96 98 99 100 100 100 100 100 100 100
27 5 53 5 7 15 86 100 95 22 44 97 5 5 5 5 5 5 87 94 98 100 100 100 100 100 100
6 35 44 82 100 100 97 91 10 5 5 99 28 13 5 5 5 5 5 23 94 100 100 95 79 71 100
6 79 100 75 82 100 13 95 80 32 5 68 7 5 72 5 2 1 5 50 11 66 100 100 100 100 100
7 4 3 5 5 8 52 100 100 99 9 91 80 94 100 5 5 5 5 5 5 5 79 100 97 100 100
4 0 3 5 5 5 5 99 100 100 21 100 100 98 100 84 69 7 5 5 5 5 5 31 87 100 100
5 5 5 5 5 5 6 24 44 80 59 100 100 100 100 98 99 8 5 5 13 5 10 5 24 44 80
53 20 61 15 5 88 6 5 35 100 83 88 97 99 100 100 100 90 95 33 64 44 5 99 100 100 100
87 98 100 98 69 69 100 100 100 32 100 73 79 97 100 100 100 92 97 99 45 80 72 97 52 86 100
100 100 98 100 100 85 100 100 100 100 73 67 92 98 90 100 99 84 90 94 75 92 95 100 100 99 100
100 100 100 100 100 98 99 100 100 100 100 74 84 95 100 100 100 97 72 88 89 62 97 100 100 69 97
100 100 100 100 100 100 100 100 99 100 98 96 100 100 100 100 100 100 100 95 100 100 100 100 100 67 100

GFSFLT2_prec_cloud_024.txt.gz
Cloud_Cover
0 0 3 5 5 5 5 5 1 4 26 56 90 100 100 100 100 100 100 100 100 100 100 100 100 100 98
5 5 5 5 5 5 4 1 5 5 5 77 77 62 98 100 97 100 100 100 100 100 100 100 100 100 100
5 5 5 6 16 6 5 5 5 4 4 5 5 5 84 100 100 90 72 80 95 99 100 100 100 100 100
6 25 100 71 5 13 5 5 5 2 3 5 5 14 14 5 5 5 5 12 84 99 100 100 100 100 100
100 38 73 6 10 5 5 5 5 5 5 5 5 5 5 5 5 5 5 82 100 100 100 100 100 100 100
84 83 16 5 5 8 5 79 93 9 5 35 5 5 5 5 5 14 84 100 100 100 100 100 100 100 100
90 5 5 5 11 23 72 99 95 18 5 63 5 5 5 5 5 5 5 95 99 97 100 100 100 100 100
5 44 86 93 100 100 75 56 5 5 5 98 5 5 5 4 5 5 5 5 19 98 100 100 100 100 100
15 59 63 61 23 92 10 68 85 81 11 85 11 5 5 5 5 5 5 5 34 13 97 100 100 100 100
5 3 0 0 5 5 5 100 100 100 5 66 73 72 95 5 46 100 16 4 5 55 99 100 99 100 100
0 0 0 5 5 5 5 97 100 100 74 100 100 94 100 91 66 5 5 5 5 5 5 58 93 99 100
4 5 5 5 5 5 5 36 44 92 50 100 99 96 100 98 99 8 5 5 5 5 5 6 64 46 91
44 5 29 10 5 78 26 5 72 100 100 100 100 99 100 100 100 92 97 18 5 43 5 5 5 7 77
37 75 99 91 80 79 100 98 100 56 98 100 100 99 100 100 100 85 39 99 40 22 18 30 50 86 80
99 99 98 100 100 92 100 100 100 99 57 78 100 87 98 100 100 91 95 88 43 77 97 92 58 95 100
100 100 100 100 100 100 100 100 100 99 100 74 87 100 100 100 100 97 69 83 73 88 100 100 100 100 85
100 100 100 100 100 100 100 100 100 100 76 78 100 100 100 100 100 100 100 100 100 100 100 100 100 99 36

GFSFLT2_prec_cloud_027.txt.gz
Cloud_Cover
44 5 4 2 5 3 2 0 3 2 5 5 93 100 100 100 100 100 100 100 100 100 100 100 100 100 100
5 5 5 5 5 5 1 0 3 5 5 76 84 22 90 100 100 100 100 100 100 100 100 100 100 100 100
5 5 5 5 5 5 5 5 5 2 4 5 5 54 99 100 100 99 100 92 96 40 64 93 100 100 100
5 5 5 5 5 5 5 5 5 3 5 5 6 10 11 5 9 5 5 5 5 50 100 92 100 100 100
53 31 8 5 5 5 5 5 5 5 5 5 5 5 5 5 3 5 5 6 88 98 100 100 100 100 100
79 82 35 5 5 5 5 100 93 21 5 5 5 5 4 4 4 5 5 28 100 100 100 100 100 100 100
51 5 5 5 7 31 87 100 100 27 5 45 5 5 1 0 1 5 5 64 95 97 100 100 100 100 100
5 5 5 62 100 100 100 78 16 5 5 46 5 5 2 0 3 5 5 5 5 67 100 100 100 100 100
5 9 64 66 30 28 7 71 94 35 5 54 5 5 5 5 0 1 5 6 23 17 51 99 100 100 100
5 5 0 0 5 5 22 98 100 89 5 83 28 99 65 5 5 5 5 20 5 5 74 98 100 100 100
3 0 0 4 5 5 5 84 100 100 6 100 84 99 100 81 24 5 5 5 5 5 5 30 97 100 100
4 5 5 5 5 5 5 16 53 98 10 96 99 97 100 98 99 5 69 5 5 5 5 5 66 45 87
5 5 5 5 5 5 5 51 78 86 61 100 98 99 100 100 99 85 94 23 45 40 6 5 5 5 45
8 48 79 68 39 54 96 97 100 44 16 96 73 84 100 100 100 88 82 100 99 94 100 99 66 92 80
94 99 97 97 88 41 99 100 100 99 84 54 77 99 97 100 100 98 100 99 5 19 76 96 70 69 75
100 100 100 100 100 98 100 100 100 100 100 36 87 100 100 100 100 100 100 98 74 77 100 100 100 100 91
100 100 100 99 100 100 100 100 100 100 83 88 100 100 100 100 100 100 100 100 100 92 63 100 100 97 74

GFSFLT2_prec_cloud_030.txt.gz
Cloud_Cover
91 24 5 5 5 4 4 2 4 0 5 5 31 88 98 92 98 100 100 100 100 100 100 100 100 100 100
9 5 5 5 5 5 4 5 0 0 5 5 6 12 51 98 99 95 100 100 100 100 100 100 100 100 100
54 5 5 5 5 5 37 5 5 0 4 5 5 5 5 60 93 93 89 76 82 100 100 100 100 100 100
13 7 5 5 5 6 7 5 5 5 4 5 5 5 5 5 5 5 5 13 93 97 97 97 98 99 100
83 22 14 75 5 42 5 5 5 4 5 5 5 4 5 5 5 5 5 5 56 99 100 100 100 100 100
100 100 97 5 86 74 5 93 94 5 5 6 5 5 5 0 2 5 5 5 42 100 100 100 100 100 100
100 32 21 99 28 78 50 88 92 21 5 81 5 5 0 0 1 5 5 17 7 12 96 99 100 100 100
19 96 88 93 100 99 66 68 32 5 5 87 4 5 0 0 3 5 5 5 5 23 99 100 100 100 100
100 95 86 20 10 5 5 64 93 8 5 68 5 5 5 5 0 0 5 8 5 5 11 93 100 100 100
35 5 4 0 3 5 23 88 100 87 5 83 6 62 72 5 5 4 0 4 5 5 19 94 99 100 100
3 0 0 2 5 5 5 82 100 100 5 100 96 96 100 90 12 5 5 5 5 5 5 27 98 99 100
4 5 5 5 5 5 5 6 55 99 10 100 98 88 100 91 94 5 5 5 5 13 41 85 84 35 78
5 5 5 5 5 5 5 5 6 40 13 69 88 91 100 100 98 84 96 93 5 28 72 13 59 19 39
13 20 8 38 5 5 80 76 100 17 5 5 38 92 99 100 100 90 45 100 99 47 79 22 48 92 97
87 100 87 66 66 14 87 100 100 95 43 5 5 32 86 94 100 91 90 78 20 55 96 94 87 71 97
100 100 100 100 100 85 98 100 100 98 95 5 43 96 90 100 98 96 100 79 61 90 100 100 99 85 72
100 99 100 100 100 91 97 98 100 99 82 84 100 100 100 100 100 100 100 100 97 99 67 96 100 100 95

GFSFLT2_prec_cloud_033.txt.gz
Cloud_Cover
100 100 100 96 86 80 69 8 16 5 1 5 5 6 62 92 47 72 92 100 100 100 100 100 100 100 100
100 100 100 100 100 70 86 72 8 68 5 9 5 6 5 5 5 94 99 100 90 81 99 95 100 100 100
100 100 100 100 100 100 81 98 81 72 59 5 5 7 5 5 38 56 25 5 34 72 77 92 96 90 96
100 100 100 100 96 100 100 100 100 92 7 70 70 5 5 5 5 5 5 5 5 5 78 97 94 96 100
100 100 99 100 100 100 96 100 100 91 100 24 67 5 5 4 5 5 4 5 6 74 84 98 100 100 100
100 100 96 100 99 100 100 89 100 32 21 100 5 5 4 5 0 5 5 5 5 91 98 100 100 100 100
100 100 100 100 100 100 97 100 100 54 59 82 5 5 5 0 4 5 5 5 5 5 5 96 100 100 100
98 100 100 100 100 98 82 86 88 13 60 80 1 5 4 5 5 5 5 5 5 6 95 95 100 100 100
100 100 100 44 26 52 84 88 86 22 10 73 5 5 5 5 0 0 5 5 5 5 10 84 99 100 100
5 5 5 3 4 5 61 99 100 85 5 60 9 57 83 5 5 5 5 5 5 5 16 90 100 100 100
3 0 5 5 5 5 34 90 100 95 5 100 86 92 100 98 8 5 5 5 5 7 5 57 89 93 100
4 5 5 5 5 59 23 41 69 86 5 92 96 94 100 95 96 8 5 5 28 100 15 54 31 12 87
5 57 53 36 34 60 64 83 82 80 46 34 100 98 100 100 99 76 92 11 85 91 5 80 86 68 82
56 25 13 71 85 83 99 88 86 7 5 5 5 81 100 100 100 100 98 99 100 20 64 56 88 86 97
98 96 78 81 88 80 89 93 98 86 33 5 5 89 95 100 100 91 98 84 26 92 98 92 89 88 90
100 100 93 99 99 86 89 95 100 99 98 58 85 97 48 92 26 74 76 94 78 89 100 100 88 100 91
100 100 100 100 100 95 91 97 97 100 94 100 100 100 100 100 86 85 100 100 100 99 97 100 100 100 100

GFSFLT2_prec_cloud_036.txt.gz
Cloud_Cover
100 100 100 100 100 100 86 88 100 100 99 56 5 5 5 5 6 10 6 79 93 86 100 100 100 100 100
100 100 100 100 100 100 100 100 100 100 100 8 20 8 5 5 5 5 53 36 98 83 88 93 72 87 98
100 100 100 100 100 100 100 100 100 100 99 12 5 5 6 15 62 100 13 96 6 5 5 17 77 82 82
100 100 100 100 100 100 100 100 100 100 89 70 62 100 97 100 65 55 34 5 5 5 5 10 31 43 97
100 100 100 100 100 100 100 100 100 100 100 100 96 42 54 98 100 14 4 5 5 5 7 26 61 71 100
100 100 100 100 100 100 100 100 100 100 100 50 20 100 100 9 0 5 5 5 5 14 81 96 98 100 100
100 87 90 100 100 100 100 100 100 100 98 100 99 38 5 0 4 5 5 5 5 5 5 67 98 100 100
96 100 100 100 100 100 92 93 93 62 96 86 5 15 5 5 5 5 5 5 5 5 6 67 96 90 100
100 100 100 51 48 76 67 98 95 54 22 84 5 96 37 2 3 4 5 5 5 5 10 74 99 92 100
59 24 5 15 17 5 82 96 100 99 70 45 66 86 80 5 5 5 5 5 5 5 28 77 99 100 100
73 83 51 5 5 21 57 82 100 100 21 100 76 82 100 99 21 5 5 2 5 5 5 63 98 99 100
2 5 5 54 87 88 89 87 90 76 7 100 99 99 100 100 95 86 5 5 5 5 18 23 79 98 98
5 52 91 85 88 87 83 97 100 94 83 84 100 100 100 100 100 85 99 19 5 20 51 52 87 100 99
61 16 5 56 96 97 94 93 93 78 93 38 19 98 100 100 100 100 100 99 40 6 78 74 100 100 100
93 88 80 79 90 93 94 96 100 100 70 65 89 100 100 100 100 88 99 99 94 76 99 100 90 97 100
94 100 98 99 98 97 100 100 100 100 100 98 100 100 90 72 87 58 76 91 96 96 100 100 99 80 100
100 100 100 100 100 100 100 100 100 100 100 100 100 100 100 100 87 100 92 67 99 100 99 100 100 100 97

GFSFLT2_prec_cloud_039.txt.gz
Cloud_Cover
100 100 100 100 100 100 100 100 100 100 90 100 100 100 100 85 74 73 45 27 27 21 68 100 100 100 100
100 100 100 100 100 100 100 100 100 100 100 100 100 100 100 100 88 98 88 75 70 93 81 70 93 98 91
100 100 100 100 100 100 100 100 69 100 100 97 100 100 100 100 100 100 100 100 100 100 97 99 83 58 49
100 100 100 100 100 100 100 96 100 100 100 99 100 100 100 100 100 100 100 100 100 45 14 64 40 5 23
100 100 100 100 96 97 99 100 100 100 100 100 92 73 98 96 100 82 71 45 21 6 5 7 8 42 57
99 92 100 100 100 100 100 100 100 100 80 100 100 100 100 98 7 5 5 5 5 10 36 40 99 64 100
97 100 100 100 100 100 100 100 100 99 55 100 100 100 49 5 3 5 5 5 5 5 5 36 100 100 100
100 100 100 100 99 98 100 100 100 93 69 100 27 5 0 0 0 5 5 5 5 5 14 31 98 100 100
100 100 100 100 100 100 98 58 62 19 5 8 4 5 3 0 0 0 3 5 5 5 5 5 61 100 100
100 100 100 71 46 41 10 5 90 97 47 5 5 15 44 0 2 0 0 2 5 5 5 24 84 97 100
100 94 61 4 5 5 5 20 81 100 46 89 16 63 99 94 19 5 5 3 4 5 5 42 42 88 100
0 0 4 5 8 83 93 97 100 92 85 100 97 96 100 100 98 8 5 5 22 7 6 55 30 9 85
2 5 34 62 9 9 88 99 99 100 88 46 94 100 100 100 100 98 99 88 45 7 8 63 19 87 96
5 5 5 5 5 47 100 100 100 100 89 39 83 100 100 100 100 97 93 100 64 71 33 79 5 5 100
93 79 84 87 90 95 100 100 100 100 100 99 100 100 100 100 99 86 76 86 94 87 97 100 87 43 100
100 100 100 100 100 100 100 100 100 100 100 100 100 100 93 76 98 93 85 81 66 91 98 100 85 95 87
100 100 100 100 100 100 100 100 100 100 100 100 100 100 100 97 26 96 23 40 99 90 35 81 95 90 70

GFSFLT2_prec_cloud_042.txt.gz
Cloud_Cover
100 100 100 100 100 100 100 100 100 100 100 100 100 100 100 100 100 100 100 100 100 91 84 100 100 100 96
100 100 100 100 100 100 100 100 100 100 100 100 100 100 100 100 32 76 65 69 77 55 74 69 99 96 100
100 100 100 100 100 100 100 100 100 100 100 100 100 100 72 53 75 60 54 100 94 64 100 100 69 93 77
100 100 100 100 100 100 100 100 100 100 100 100 50 32 100 92 100 99 100 88 100 35 57 100 100 100 100
100 100 100 100 100 100 100 100 97 100 80 17 26 77 94 83 17 20 100 73 16 5 56 86 93 97 90
100 100 100 100 100 99 90 100 100 87 89 100 23 20 82 58 98 8 20 29 78 87 94 80 99 100 100
100 100 100 100 89 94 99 100 100 100 100 100 93 99 85 56 5 5 5 5 8 5 5 7 29 95 100
100 100 100 100 100 100 100 100 100 99 99 99 46 22 5 5 5 5 5 5 5 5 5 5 32 100 100
100 100 100 100 100 100 100 100 100 71 28 23 5 5 3 1 0 0 0 5 5 5 5 83 92 79 100
98 96 91 92 71 49 25 5 64 46 18 5 6 5 27 5 0 0 2 2 5 5 5 30 99 98 88
5 5 5 3 1 5 5 5 64 46 56 95 94 94 97 87 5 5 5 4 5 5 5 5 61 94 100
5 5 5 4 5 5 14 52 91 91 91 100 99 96 100 100 98 5 5 5 5 5 5 5 5 5 87
0 5 5 5 5 5 5 63 98 99 100 100 100 85 100 100 98 77 92 5 5 5 5 5 5 5 11
5 5 5 5 5 9 44 97 100 100 100 100 100 97 98 100 100 72 10 97 19 5 5 5 5 5 5
6 77 97 99 100 100 100 100 100 100 100 92 98 100 100 100 100 89 80 78 55 7 40 85 35 5 43
100 100 97 98 100 100 100 100 100 100 100 100 100 100 99 85 100 87 80 100 59 44 47 98 100 26 31
100 100 100 100 100 100 100 100 98 100 86 98 100 100 100 99 12 58 83 70 62 98 92 85 74 43 5

GFSFLT2_prec_cloud_045.txt.gz
Cloud_Cover
100 100 100 100 100 100 100 100 100 100 100 100 100 100 100 100 100 100 100 97 98 100 100 100 100 100 100
100 100 100 100 100 100 100 100 100 100 100 100 100 100 100 100 100 100 100 100 100 100 100 100 100 100 100
100 100 100 100 100 100 100 100 100 100 100 100 100 100 100 100 100 100 100 100 100 100 100 94 98 94 60
100 100 100 100 100 100 100 100 100 100 100 100 100 100 100 100 100 100 100 100 91 100 58 17 48 23 18
100 100 100 100 100 100 100 100 100 100 100 100 100 100 100 100 91 100 100 100 100 52 18 65 96 91 100
100 100 100 100 100 100 97 97 100 99 96 100 97 100 100 100 100 100 52 27 10 71 30 6 89 100 100
90 100 99 99 100 94 100 97 100 100 100 100 87 100 97 76 75 9 5 7 10 8 5 63 92 98 100
99 99 100 100 100 100 100 100 100 100 100 100 100 98 84 66 27 5 5 5 12 13 12 13 8 10 82
100 100 100 100 100 100 100 92 77 58 48 59 9 6 5 5 4 4 5 1 5 5 5 6 8 8 6
75 25 5 5 5 5 5 49 70 50 5 30 12 8 31 5 5 4 5 3 5 5 5 5 22 27 5
5 5 5 5 5 5 5 5 57 45 15 89 96 100 100 56 6 5 5 5 5 5 5 5 5 37 66
2 2 5 5 5 5 5 8 11 61 84 100 100 100 100 100 99 8 5 5 5 5 5 5 5 5 13
0 5 21 5 6 16 5 5 5 14 89 100 100 100 100 100 100 89 86 5 5 5 5 6 5 5 6
5 5 5 8 21 41 67 81 41 6 24 100 100 100 100 100 100 90 10 87 23 5 15 5 6 5 6
70 89 99 100 98 98 100 90 97 83 54 14 91 98 100 98 100 95 89 94 87 84 79 100 76 88 70
100 100 100 100 100 100 100 93 96 75 65 10 26 93 87 51 79 94 100 100 98 80 90 100 100 100 36
100 100 100 100 100 98 98 94 100 92 66 5 46 98 100 94 12 8 44 5 53 75 84 98 88 35 5

GFSFLT2_prec_cloud_048.txt.gz
Cloud_Cover
100 100 100 100 100 100 100 100 100 100 100 100 100 100 100 100 100 100 100 100 100 100 100 100 100 99 98
100 100 100 100 100 100 100 100 100 100 100 100 100 100 100 100 100 100 100 100 100 100 100 100 100 100 100
100 100 100 100 100 100 100 100 100 100 100 100 100 100 100 100 100 100 100 100 100 100 100 100 100 100 100
100 100 100 100 100 100 100 100 100 100 100 100 100 100 100 100 100 100 100 100 100 100 100 100 100 97 100
100 100 100 100 100 100 100 100 100 100 98 100 100 100 100 100 100 100 100 100 100 100 100 100 100 100 100
100 100 100 100 98 100 100 96 77 51 99 100 97 100 100 100 100 100 100 100 100 100 100 100 100 99 100
59 70 70 33 9 20 87 84 74 9 5 61 5 6 5 16 100 99 97 86 50 49 65 43 38 61 100
49 10 5 5 8 92 92 99 93 86 94 75 59 8 6 5 5 5 5 5 21 19 35 28 6 5 5
12 5 8 39 22 43 66 63 23 8 40 27 6 5 5 5 5 5 5 5 5 5 5 5 5 14 10
6 5 5 2 5 5 5 44 77 16 5 30 11 11 49 5 5 5 5 0 5 5 5 5 15 16 5
5 3 0 0 0 2 3 5 51 25 5 56 90 98 96 64 6 5 5 5 5 2 5 5 5 6 10
0 0 2 5 5 7 5 15 43 18 5 41 100 100 100 96 100 39 18 28 5 5 5 5 5 5 22
0 5 20 5 40 15 5 5 5 6 5 96 98 100 100 100 79 88 100 21 12 5 5 5 5 5 7
5 5 5 47 73 90 96 100 90 6 5 12 94 100 100 100 100 67 27 95 48 27 73 34 25 31 42
66 95 100 100 100 96 100 100 96 85 43 5 5 24 72 100 100 100 85 82 80 97 100 100 100 98 96
100 100 100 100 100 100 94 82 98 99 85 17 56 66 69 5 66 97 91 94 65 40 46 96 89 5 5
100 100 100 100 100 98 64 90 83 77 52 8 87 99 100 99 13 35 5 5 5 5 7 95 93 7 6

GFSFLT2_prec_cloud_051.txt.gz
Cloud_Cover
100 100 100 100 100 100 100 100 100 100 100 100 100 100 100 100 100 100 100 100 100 100 100 100 100 100 100
100 100 100 100 100 100 100 100 100 100 100 100 100 100 100 100 100 100 100 100 100 100 100 100 100 100 100
100 100 100 100 100 100 100 100 100 100 100 100 100 100 100 100 100 100 100 100 100 100 100 100 100 100 100
100 100 100 100 100 100 100 100 100 100 100 100 100 100 100 100 100 100 100 100 100 100 100 100 100 100 100
100 100 100 100 100 100 100 100 100 100 100 100 100 100 100 100 100 100 100 100 100 96 100 100 100 100 100
97 99 100 97 70 85 62 47 61 33 6 47 89 99 84 100 76 99 100 100 100 100 54 96 100 100 100
7 17 20 6 5 8 5 5 5 5 18 27 15 78 53 74 63 6 22 39 51 71 85 100 100 100 100
5 5 5 5 5 5 5 5 5 5 5 67 5 5 5 5 8 5 5 5 6 30 67 100 100 100 99
5 5 5 8 9 5 5 45 17 5 5 5 5 5 8 18 26 17 5 56 8 5 5 6 14 12 11
4 20 4 3 2 1 5 40 74 6 5 35 11 5 53 2 5 12 62 22 5 5 5 5 18 26 5
5 5 0 0 2 5 4 5 57 37 5 60 89 94 98 68 6 5 5 5 5 4 2 5 5 12 6
5 2 3 7 5 6 5 27 5 5 5 12 68 50 94 98 96 8 5 5 5 5 5 5 5 8 41
5 5 21 5 42 15 5 5 5 6 5 38 17 64 97 99 89 63 88 23 12 5 7 5 5 11 5
5 5 5 50 52 100 100 88 93 12 5 26 56 58 100 100 96 84 91 97 65 71 51 43 89 100 100
46 59 100 100 100 100 100 100 94 84 51 5 5 10 27 45 96 90 89 90 93 94 93 90 100 100 93
5 73 98 100 100 100 100 100 73 60 63 43 67 63 60 20 9 71 78 85 94 62 53 94 90 10 5
68 69 14 18 100 100 100 92 96 79 61 55 97 100 100 99 5 89 62 87 47 7 100 99 71 36 16

GFSFLT2_prec_cloud_054.txt.gz
Cloud_Cover
100 100 100 100 100 100 100 100 100 100 100 100 100 100 100 100 100 100 100 100 100 100 100 100 100 100 100
100 95 80 100 100 100 100 100 100 100 100 100 100 100 100 100 100 100 100 100 100 100 100 100 100 100 100
100 100 98 100 100 100 100 100 100 100 100 100 100 100 100 100 100 100 100 100 100 100 100 100 100 100 100
100 96 99 100 100 100 100 100 100 100 100 100 100 100 100 100 100 100 100 100 100 100 100 100 100 100 100
99 91 92 100 100 100 100 100 100 100 100 100 80 74 92 100 100 100 100 100 100 100 100 100 100 100 100
48 32 23 21 14 23 19 13 11 5 5 5 5 5 5 6 42 99 100 99 76 100 100 100 100 100 100
5 5 5 7 5 5 5 5 5 5 5 5 5 5 4 3 5 7 30 36 50 99 100 100 100 100 100
5 5 5 5 5 5 5 5 5 5 5 85 5 5 5 5 5 5 5 5 7 56 100 100 100 100 100
13 20 9 12 6 5 8 55 18 5 5 6 5 5 5 5 5 72 37 11 78 72 37 69 88 77 34
46 55 6 5 5 5 22 55 74 6 4 38 21 5 11 5 5 5 35 96 89 5 5 5 19 5 5
54 5 5 5 5 5 5 5 56 41 5 41 89 49 69 5 5 5 4 3 5 5 1 4 5 5 6
5 5 5 5 7 10 5 21 5 5 5 12 69 82 89 96 85 5 5 5 5 5 5 5 5 8 37
17 14 5 5 50 18 5 5 5 5 26 60 75 77 81 100 93 73 96 5 10 5 7 6 5 5 7
31 15 8 51 58 100 100 97 85 14 5 26 71 89 95 99 99 100 82 90 58 58 16 55 13 5 5
69 58 36 59 96 100 100 95 96 88 15 5 5 11 22 22 94 54 6 14 12 5 38 87 92 62 25
77 68 66 59 50 46 100 100 98 72 50 34 66 60 31 5 8 12 26 18 5 5 55 95 95 89 35
74 75 71 81 93 78 23 93 65 61 24 58 97 100 100 98 5 17 62 5 5 67 11 22 32 75 100

GFSFLT2_prec_cloud_060.txt.gz
Cloud_Cover
100 100 96 41 58 90 99 98 98 100 100 100 100 100 100 100 100 100 100 100 100 100 100 100 100 100 100
90 98 81 66 95 100 91 100 99 94 100 100 100 100 100 100 100 98 14 99 100 100 82 92 100 100 100
100 85 100 71 100 98 67 72 65 93 76 97 100 100 99 95 98 98 90 7 18 86 100 100 100 100 100
100 97 100 100 100 100 88 43 19 8 5 20 5 5 8 92 25 93 84 100 100 99 100 100 100 100 100
98 98 98 100 80 67 29 8 52 33 5 5 5 5 5 5 5 5 8 57 91 75 48 52 23 53 47
84 39 43 5 5 5 5 51 99 6 5 17 5 5 2 0 0 0 1 1 5 5 5 5 5 5 5
0 1 2 5 5 11 48 76 56 82 84 6 5 5 5 1 0 5 5 5 5 5 5 5 5 5 5
5 5 5 5 7 21 51 28 72 92 78 30 5 5 5 5 5 5 33 9 5 5 6 12 42 97 100
3 4 5 5 5 5 6 5 14 70 61 54 19 6 5 17 5 5 5 6 5 5 85 100 100 100 100
5 5 5 5 5 5 14 5 42 34 72 82 47 66 58 13 5 5 5 5 5 5 5 100 100 100 100
5 5 5 5 5 5 5 9 30 39 40 42 96 71 75 74 5 14 14 5 5 5 5 6 29 43 75
5 5 5 5 5 6 5 6 50 56 80 100 92 99 100 99 68 5 5 5 5 8 14 14 5 5 5
5 5 5 5 6 25 64 83 76 73 79 78 94 100 100 98 84 76 84 10 48 63 72 56 46 26 15
5 5 5 5 42 81 91 90 96 88 74 55 72 87 92 86 82 89 87 78 8 51 71 61 77 75 27
5 5 8 47 11 36 74 80 89 95 88 98 82 84 80 70 62 5 5 5 5 36 93 76 73 79 68
5 12 5 5 5 10 62 77 73 52 58 84 99 96 29 4 7 5 10 50 80 89 100 100 87 6 9
5 6 54 57 68 35 8 47 5 5 5 70 99 99 99 92 11 5 6 51 97 95 71 74 71 5 8

GFSFLT2_prec_cloud_063.txt.gz
Cloud_Cover
100 87 77 92 30 93 100 100 100 100 100 100 100 100 100 100 100 100 100 100 100 100 100 100 100 100 100
100 94 82 57 61 100 100 98 81 60 90 100 99 100 100 100 100 100 100 100 99 99 100 100 100 100 100
100 86 98 71 100 100 98 17 53 35 6 48 82 56 100 100 100 100 100 100 100 5 7 25 17 99 100
95 100 92 100 91 78 45 16 5 5 5 5 5 5 5 19 24 15 5 89 100 70 29 27 74 100 100
100 100 100 100 78 36 5 5 5 1 3 5 5 10 5 5 5 5 5 5 42 100 100 100 100 100 100
100 97 92 5 5 4 0 3 5 0 5 5 5 5 5 5 5 4 1 0 0 5 5 5 5 5 5
7 5 0 0 5 5 5 5 5 4 2 4 5 5 5 5 5 5 5 5 5 5 5 5 5 5 5
4 5 5 5 5 5 5 5 5 5 5 5 5 5 5 5 5 5 5 6 10 5 5 5 5 11 15
7 2 0 1 0 1 5 5 5 5 5 5 5 5 5 26 11 5 5 5 5 5 8 8 5 62 24
5 0 0 2 1 0 5 5 5 7 5 5 11 5 7 25 14 54 14 5 5 5 5 5 5 39 76
5 0 0 5 5 5 5 5 6 5 5 5 62 5 44 35 15 25 10 5 5 5 5 5 16 85 100
16 5 4 5 5 5 5 5 6 5 24 50 11 54 96 100 61 5 5 5 4 5 5 5 18 17 11
5 5 5 5 5 5 5 5 53 5 5 29 88 96 100 100 91 78 63 5 5 5 5 5 10 32 5
5 5 5 5 5 5 5 5 69 10 26 30 72 100 100 90 83 92 79 44 5 5 5 5 5 6 5
5 5 5 5 5 7 5 10 67 5 5 60 42 5 9 46 89 67 6 5 5 5 5 100 100 56 5
5 5 5 5 7 5 5 5 5 5 11 10 62 84 70 4 6 6 10 5 5 51 100 100 100 87 5
5 5 5 26 24 16 21 5 5 5 5 5 38 94 100 99 5 4 5 5 5 5 6 11 55 6 5

GFSFLT2_prec_cloud_066.txt.gz
Cloud_Cover
100 100 100 100 100 99 100 100 100 100 100 100 100 100 100 100 100 100 100 100 100 100 100 100 100 100 100
100 100 100 100 94 100 100 100 100 26 63 100 100 92 100 100 100 100 100 100 100 100 100 100 100 100 100
100 100 100 100 100 98 90 4 0 0 1 0 5 32 94 80 100 100 100 100 100 100 98 72 34 61 84
100 100 100 100 100 36 6 0 5 5 4 5 5 5 5 5 25 70 79 76 53 93 74 54 7 70 100
100 100 100 100 97 31 5 2 0 0 0 0 0 2 5 5 5 5 5 5 5 72 100 100 100 100 100
100 100 100 100 9 94 3 5 5 0 0 0 0 5 5 5 5 5 5 5 5 5 5 5 5 5 5
100 100 100 95 57 21 5 5 5 1 0 0 1 3 5 5 5 5 5 5 5 5 5 5 5 5 5
100 100 100 100 99 5 5 5 4 1 0 5 0 3 5 5 26 24 5 5 5 5 5 5 6 5 6
100 100 100 100 43 14 5 5 5 0 2 0 5 5 5 5 5 5 5 5 5 5 13 57 42 5 5
100 100 100 100 79 49 5 5 17 5 4 5 6 5 9 5 5 5 5 5 5 5 5 5 5 5 5
100 100 100 100 100 25 5 21 68 62 17 6 54 32 48 20 5 5 5 5 5 5 5 5 5 9 13
100 100 100 100 94 5 8 12 10 8 11 28 63 57 51 23 32 5 5 5 5 5 5 5 5 5 17
100 100 93 72 6 5 6 5 5 5 5 8 25 33 78 88 74 85 69 5 5 6 5 5 5 8 7
100 100 85 15 38 6 7 6 55 5 8 25 48 51 70 100 100 99 81 46 6 6 5 5 5 5 5
100 80 58 33 5 14 13 12 51 50 8 11 19 5 5 20 92 76 65 28 5 5 5 5 68 96 84
95 83 48 7 28 8 5 32 46 27 22 19 71 93 96 65 24 50 43 9 5 5 6 89 83 11 5
74 42 48 39 7 12 14 22 42 51 24 5 15 64 97 86 5 1 5 32 40 48 5 5 7 5 5

GFSFLT2_prec_cloud_069.txt.gz
Cloud_Cover
99 100 99 100 100 98 100 100 100 100 100 100 100 100 100 100 100 100 100 100 100 100 100 100 100 100 100
100 100 100 100 100 100 100 100 100 100 48 95 94 89 32 100 100 100 100 100 100 100 100 100 100 100 100
100 100 100 100 100 100 100 100 100 47 5 5 2 5 68 65 77 91 100 100 100 100 100 100 98 100 100
100 100 100 100 100 100 100 100 100 95 16 5 0 0 3 3 5 5 17 100 100 100 100 18 7 5 82
100 100 100 100 100 100 100 100 100 91 20 37 4 0 0 0 0 1 3 5 5 5 5 5 5 5 32
100 100 100 100 100 100 100 100 100 8 52 12 5 0 0 0 0 0 0 5 5 5 5 5 5 5 5
100 100 100 100 100 100 100 100 99 33 12 5 0 4 5 0 0 0 5 5 10 5 5 5 5 5 4
100 100 100 100 100 100 100 100 100 59 8 5 5 5 5 5 0 4 3 5 5 6 6 5 9 10 17
100 100 100 100 100 100 100 100 100 28 6 5 5 5 5 5 5 5 3 5 5 5 5 16 11 24 5
100 100 100 100 100 100 100 100 100 59 5 5 6 5 7 5 5 5 5 5 5 5 5 5 5 5 5
100 100 100 100 100 100 100 100 97 93 19 17 76 60 68 49 5 5 5 5 5 5 5 5 5 8 16
100 100 100 100 100 100 100 100 39 68 43 60 55 46 85 82 14 5 5 6 10 6 5 5 5 5 5
100 100 100 100 100 100 100 54 16 33 51 48 49 90 70 91 78 39 84 5 5 31 11 14 6 6 6
100 100 100 100 100 98 77 72 88 61 38 52 49 26 96 100 87 97 82 52 10 5 5 5 5 5 5
100 100 100 100 100 84 97 90 66 61 52 77 38 30 55 98 94 84 94 67 5 5 36 7 5 5 5
100 100 100 100 99 75 86 75 56 48 61 51 74 89 100 64 51 92 96 70 6 5 8 84 56 12 5
100 97 100 100 100 100 98 82 60 60 62 66 67 99 100 88 84 15 62 67 56 6 14 34 36 5 5

GFSFLT2_prec_cloud_072.txt.gz
Cloud_Cover
100 100 100 100 100 100 100 100 100 100 100 100 93 100 100 100 100 100 100 93 72 100 100 100 100 100 100
100 100 100 100 100 100 78 100 81 100 80 97 100 100 69 100 100 100 100 100 97 100 92 46 45 99 100
100 100 100 100 100 100 100 100 100 100 100 100 100 100 91 98 32 100 100 100 100 100 60 72 100 100 100
100 100 100 100 100 100 100 100 100 100 100 100 100 86 98 21 5 5 5 19 48 100 100 90 95 50 55
100 100 100 100 100 100 100 100 100 100 100 100 100 100 16 5 6 6 5 5 5 5 8 5 5 5 5
100 100 100 100 100 100 100 100 100 100 100 100 100 100 36 5 5 38 5 5 5 5 0 0 4 5 8
100 100 100 100 100 100 100 100 100 100 100 100 100 100 45 34 5 15 5 5 9 5 5 5 5 5 5
92 100 100 100 100 100 100 100 100 100 99 100 100 95 63 10 54 38 5 5 5 4 12 5 5 5 5
100 100 100 100 100 100 100 100 100 100 100 100 100 100 62 38 58 96 6 5 5 5 5 14 6 12 5
100 100 100 100 100 100 100 100 100 100 100 100 100 100 64 45 48 23 5 5 5 5 5 5 8 5 5
100 100 100 100 100 100 100 100 100 100 100 100 100 91 73 76 75 19 5 5 5 5 5 14 5 10 16
100 100 100 100 100 100 100 100 100 100 100 100 85 87 80 81 85 41 13 5 9 5 10 54 7 5 5
100 100 100 100 100 100 100 100 100 100 99 97 97 94 70 96 67 63 10 5 6 55 83 36 6 6 6
100 100 100 100 100 100 100 100 97 100 100 100 100 100 99 77 71 50 34 65 42 47 50 17 18 5 5
100 100 100 100 100 100 99 100 100 100 100 100 100 100 92 80 99 99 82 86 15 21 78 38 6 5 5
100 100 100 100 100 100 100 100 100 100 96 100 100 100 100 100 100 100 99 99 63 39 43 96 50 6 5
94 97 100 100 100 100 100 100 100 100 100 100 100 100 98 100 100 100 100 95 64 66 37 63 36 42 5

GFSFLT2_prec_cloud_075.txt.gz
Cloud_Cover
100 100 100 100 100 100 100 100 100 100 100 100 94 100 100 100 100 100 100 100 100 100 100 100 100 100 100
100 100 100 100 100 100 100 100 100 100 100 100 100 100 100 100 100 100 100 100 99 100 100 100 100 100 100
100 100 100 100 100 100 100 100 100 100 100 100 98 100 100 100 100 100 100 100 100 100 100 81 50 42 100
100 100 100 100 100 100 100 100 100 100 100 100 100 100 100 100 100 100 80 100 98 100 100 100 84 100 100
100 100 100 100 100 100 100 100 100 100 100 100 100 100 100 100 100 100 100 47 18 18 5 12 6 10 32
100 100 100 100 100 100 100 100 100 100 100 100 100 100 100 100 100 100 100 92 88 10 5 5 5 5 5
100 100 89 94 100 100 100 100 100 100 100 100 100 100 100 100 100 100 100 100 43 60 61 34 5 5 5
98 100 100 100 100 100 100 100 100 100 100 100 100 100 100 100 100 100 100 100 95 98 98 57 5 5 5
100 100 100 100 98 100 100 100 100 100 100 100 100 100 100 100 100 100 100 100 78 35 95 83 6 6 5
100 100 100 100 100 100 100 100 100 100 100 100 100 100 100 100 100 100 100 85 58 79 92 18 5 5 5
100 100 100 100 100 100 100 100 100 100 100 100 100 100 100 100 100 100 100 69 70 54 22 31 5 5 10
100 100 100 100 100 100 100 100 100 100 100 100 100 100 100 100 100 100 100 100 86 62 81 36 6 5 5
100 100 100 100 100 100 100 100 100 100 100 100 100 100 100 100 100 100 100 100 100 82 78 34 8 8 6
100 100 100 100 100 100 100 100 100 100 100 100 100 100 100 100 100 100 100 99 74 83 97 41 25 28 5
100 100 100 100 100 100 100 100 100 100 100 100 100 100 100 100 100 100 64 49 36 85 93 100 92 68 49
100 100 100 100 100 100 100 99 100 100 100 100 100 100 100 100 100 100 100 91 67 58 46 100 99 18 24
98 88 82 96 100 100 96 84 94 100 99 100 99 96 100 100 100 100 100 99 91 77 39 76 76 79 5

GFSFLT2_prec_cloud_078.txt.gz
Cloud_Cover
98 100 100 100 100 100 100 100 100 100 100 100 100 100 100 100 100 100 100 100 100 100 100 100 98 86 100
100 100 100 100 100 100 100 100 100 100 100 100 100 100 100 100 100 100 100 100 100 100 100 100 100 100 96
100 100 100 100 100 100 100 100 100 100 100 100 100 100 100 100 100 100 100 100 100 100 100 100 100 97 100
100 100 100 100 100 100 100 100 99 100 100 100 100 100 100 100 100 100 100 100 100 100 100 100 100 100 98
100 100 100 100 100 100 100 86 65 100 100 100 100 100 100 100 100 100 100 100 100 100 100 100 89 99 94
100 100 100 100 100 100 98 99 99 34 99 100 100 100 100 100 100 100 100 100 100 100 100 100 100 12 7
100 100 100 100 93 100 100 100 100 100 100 100 100 100 100 100 100 100 100 100 100 100 100 100 100 93 42
71 100 53 99 96 100 100 100 100 100 100 100 100 100 100 100 100 100 100 100 100 100 100 100 100 100 92
100 100 100 100 100 100 100 100 100 100 100 100 100 100 100 100 100 100 100 100 100 100 100 100 100 100 77
100 100 100 100 100 100 100 100 100 100 100 100 100 100 100 100 100 100 100 100 100 100 100 100 100 90 71
100 100 100 100 100 100 100 100 100 100 100 100 100 100 100 100 100 100 100 100 100 100 100 100 100 100 85
100 100 100 100 100 100 100 100 100 100 100 100 100 100 100 100 100 100 100 100 100 100 100 100 100 97 99
99 100 100 98 100 100 100 100 100 100 100 100 100 100 100 100 100 100 100 100 100 100 100 100 100 100 100
100 100 100 100 100 100 100 100 100 100 100 100 100 100 100 100 100 100 100 100 100 100 100 100 63 81 10
100 100 100 100 100 100 100 100 100 100 100 100 100 100 100 100 100 100 100 98 90 100 100 100 99 87 51
100 100 89 84 94 97 97 100 93 98 96 95 87 82 88 92 91 93 83 66 71 56 53 100 100 97 91
87 72 86 90 90 78 79 82 100 99 68 83 90 84 92 100 88 97 53 55 60 66 65 98 100 100 98

GFSFLT2_prec_cloud_081.txt.gz
Cloud_Cover
100 100 100 100 100 100 100 100 100 100 100 100 100 100 100 100 100 100 100 100 100 100 100 100 100 100 100
98 100 100 100 100 100 100 100 100 100 100 100 100 100 100 100 100 100 100 100 100 100 100 100 100 100 100
100 100 97 100 100 100 100 100 100 100 98 88 96 100 100 100 100 100 100 100 100 100 100 100 100 100 100
100 100 100 100 100 100 100 100 98 100 11 99 90 100 100 100 100 100 100 100 100 100 100 100 100 100 100
100 100 100 100 100 100 100 100 100 86 95 99 100 100 93 100 100 100 100 100 100 100 100 100 100 100 100
100 100 100 100 100 100 100 100 95 95 100 100 100 100 100 100 100 100 100 100 100 100 100 100 100 100 100
100 100 100 100 100 100 100 59 91 100 100 100 100 100 100 100 100 100 100 100 100 100 100 100 100 100 100
63 100 100 100 84 100 78 100 100 100 100 100 100 100 100 100 100 100 100 100 100 100 100 100 100 100 100
5 5 9 31 96 97 76 100 100 100 100 100 100 100 100 100 100 100 100 100 100 100 100 100 100 100 100
50 8 27 87 100 78 97 100 100 100 100 100 100 100 100 100 100 100 100 100 100 100 100 100 100 100 100
5 13 6 8 36 80 100 98 100 100 100 100 100 100 100 100 100 100 100 100 100 100 100 100 100 100 100
5 5 13 90 100 100 100 99 97 100 100 100 100 100 100 100 100 100 100 100 100 100 100 100 100 100 100
5 39 91 100 100 100 100 100 100 100 100 100 100 100 100 100 100 100 100 100 100 100 100 100 100 100 100
37 98 94 98 88 69 85 100 99 94 99 100 100 100 99 97 98 100 100 100 100 100 100 100 100 100 100
53 52 94 100 100 91 77 77 85 100 93 78 83 91 98 93 71 72 97 100 100 100 100 100 100 100 100
68 73 72 68 97 96 100 86 84 98 95 88 98 99 91 72 78 59 54 63 94 90 87 99 99 60 100
100 70 99 100 77 89 76 84 79 76 61 43 54 58 62 62 71 23 45 43 34 58 66 63 45 28 5

GFSFLT2_prec_cloud_087.txt.gz
Cloud_Cover
100 95 46 100 98 100 100 100 100 100 92 99 100 100 100 100 95 100 100 100 100 100 100 100 100 100 100
99 100 100 100 95 100 100 100 100 100 100 100 100 100 100 43 98 89 90 100 100 100 100 100 100 100 100
100 100 100 100 100 100 100 100 92 100 100 100 100 100 100 19 88 4 5 85 100 100 100 100 100 100 100
90 100 93 98 89 98 98 100 100 100 100 100 100 100 95 65 26 5 86 100 97 100 100 100 100 100 100
100 100 100 100 100 100 100 100 100 100 100 100 99 100 23 5 62 11 100 91 97 100 100 100 100 100 100
100 100 100 100 100 100 100 100 100 100 100 100 97 27 4 48 67 98 100 100 100 100 100 100 100 100 100
100 100 100 100 100 100 100 100 100 100 100 100 4 73 34 69 100 100 100 100 100 100 100 100 100 100 100
100 100 100 100 100 100 100 100 100 100 90 11 5 5 84 54 90 97 100 100 100 100 100 100 100 100 100
23 75 56 59 98 96 99 68 57 5 5 5 5 5 79 42 99 79 74 100 100 100 100 100 100 100 100
33 78 36 37 18 29 64 20 6 5 5 5 5 5 51 52 99 88 100 99 100 100 100 100 100 100 100
98 94 90 21 2 2 4 26 18 5 5 17 6 5 14 26 31 99 98 98 75 92 100 100 100 100 100
33 18 52 8 3 5 2 5 5 51 5 88 63 5 8 62 100 100 100 100 100 98 95 100 100 100 100
5 2 2 4 5 5 5 5 5 5 5 22 48 77 26 33 41 62 98 94 100 98 100 100 100 100 100
5 5 5 5 14 38 67 5 5 5 6 20 5 5 5 5 6 16 39 43 95 98 100 99 98 100 100
5 5 5 5 80 100 100 66 6 7 13 35 18 5 29 12 35 60 20 52 61 68 93 96 87 85 93
5 31 65 83 74 100 100 100 94 49 5 5 24 58 10 11 30 17 36 73 68 41 19 26 39 33 21
100 64 99 95 72 90 100 100 100 92 26 59 71 29 6 25 20 25 10 7 16 12 23 38 8 24 49

GFSFLT2_prec_cloud_090.txt.gz
Cloud_Cover
100 100 100 100 100 100 100 100 100 99 100 100 100 100 100 78 100 27 100 100 100 100 87 100 100 100 100
100 100 96 100 100 100 93 94 100 100 100 100 100 100 100 100 100 74 53 87 99 47 30 64 100 100 100
100 100 100 100 100 100 100 100 100 100 100 100 100 100 98 100 90 21 0 5 0 49 7 37 100 100 100
100 100 100 100 100 100 95 100 100 100 100 100 100 85 92 97 15 2 3 3 10 7 96 100 100 100 100
100 100 100 100 88 96 100 100 100 100 100 100 100 100 100 100 8 5 3 5 58 100 100 100 100 100 100
100 100 93 100 100 100 100 100 100 100 100 100 100 100 90 5 5 5 5 5 76 99 100 100 100 100 100
100 100 99 100 100 100 100 100 100 100 100 100 100 93 5 5 4 4 5 5 83 99 100 100 100 100 100
100 100 100 100 100 100 100 100 100 100 100 98 95 2 0 5 4 4 5 20 17 93 97 74 100 100 100
100 100 100 100 100 99 99 96 100 94 96 100 6 0 4 5 5 5 5 53 65 46 100 78 84 100 100
100 96 84 98 56 95 100 99 100 100 100 99 7 1 5 5 5 5 9 88 100 88 100 100 100 100 100
100 100 100 93 100 84 66 76 74 98 72 27 34 5 12 5 5 5 23 89 92 70 50 79 97 100 91
99 100 100 100 100 100 94 100 36 51 8 10 49 11 41 20 5 5 17 40 45 63 18 54 100 100 100
100 100 100 98 96 96 98 7 15 6 11 100 74 76 59 57 6 5 5 22 70 35 54 32 83 30 95
100 100 99 70 21 12 20 20 14 55 27 42 68 5 59 5 6 32 6 6 11 9 6 9 7 20 36
100 100 96 30 5 5 29 94 97 88 100 100 93 56 38 7 22 14 7 8 11 8 6 14 9 12 42
100 100 100 100 46 86 98 100 100 92 92 100 100 97 39 6 39 57 49 22 9 13 14 52 18 5 5
100 100 100 100 86 80 100 100 100 95 98 100 100 100 68 62 64 85 85 70 62 63 30 19 43 6 35

GFSFLT2_prec_cloud_093.txt.gz
Cloud_Cover
100 100 100 100 100 100 100 100 100 100 100 95 99 92 100 100 100 100 100 100 100 100 100 100 100 99 100
100 100 100 100 100 100 100 93 93 100 100 89 100 91 100 100 100 100 100 100 97 99 100 54 77 100 100
100 100 100 100 100 100 100 100 100 100 100 100 100 100 100 100 100 100 27 5 1 2 17 1 26 100 100
100 100 100 100 100 96 95 98 100 100 79 68 100 100 100 100 100 87 32 90 1 0 0 3 17 73 100
100 100 100 100 100 100 100 100 98 100 100 100 100 100 100 100 100 99 83 24 0 0 0 0 5 93 100
100 100 100 100 100 100 100 100 100 100 100 100 100 100 100 100 100 86 98 20 0 0 0 5 5 43 92
100 100 100 100 100 100 100 100 100 100 100 100 100 100 100 97 83 28 89 2 1 5 5 5 70 93 99
100 100 100 100 100 100 100 100 100 100 99 100 100 100 94 23 100 100 66 1 4 8 5 12 21 35 64
100 100 100 100 100 100 100 100 100 100 100 100 100 100 17 82 95 4 5 5 5 19 100 77 30 16 5
100 100 99 100 100 100 100 100 100 100 100 100 100 100 99 5 5 5 5 5 20 27 14 5 5 59 81
100 100 100 100 100 100 100 100 100 100 100 100 100 94 18 5 5 5 5 5 5 5 5 65 5 9 90
100 100 100 100 100 100 100 100 100 100 100 100 100 55 49 60 5 5 5 5 39 5 18 7 29 33 7
100 100 100 100 100 100 100 100 100 100 100 99 83 82 45 41 6 5 5 9 54 5 18 6 5 18 5
100 100 100 100 100 100 100 99 100 100 98 98 85 5 86 68 100 63 52 10 22 36 76 20 5 5 8
100 100 100 100 100 100 100 100 100 100 100 56 13 7 42 31 85 78 81 56 11 8 6 25 14 6 5
100 100 100 100 76 100 100 100 100 100 100 69 46 27 60 50 83 95 85 12 44 39 37 65 16 7 5
100 100 100 100 100 100 100 100 100 100 100 36 85 78 66 78 96 100 68 100 100 81 18 11 57 6 5

GFSFLT2_prec_cloud_096.txt.gz
Cloud_Cover
100 100 100 100 100 100 100 100 100 100 100 100 90 93 100 80 100 83 76 100 100 100 100 100 100 100 70
100 100 100 100 100 100 100 100 100 100 100 100 87 100 95 100 65 98 100 100 100 100 100 62 34 95 100
100 100 100 100 100 100 100 100 100 100 100 100 88 100 99 72 78 100 100 100 100 100 100 12 2 17 66
100 100 100 100 100 99 100 100 96 100 100 100 99 97 100 100 100 100 42 100 100 93 100 5 1 3 100
100 100 100 100 100 100 100 93 100 100 100 95 100 100 100 100 98 100 99 97 100 100 76 4 0 1 39
100 100 100 99 100 100 100 100 100 100 100 60 100 100 100 100 100 100 100 100 91 100 100 5 0 0 5
100 100 100 100 100 100 100 100 100 100 100 100 100 100 100 100 100 100 100 100 100 100 90 6 0 8 3
100 100 100 100 100 100 100 100 100 100 100 100 100 100 100 100 100 100 100 100 100 100 38 34 60 17 50
100 100 100 100 100 100 100 100 100 100 100 100 100 100 100 100 100 100 100 100 100 82 90 82 5 0 3
100 100 100 100 100 100 100 100 100 100 100 100 100 100 100 100 100 100 100 100 83 16 81 5 4 0 5
100 100 100 100 100 100 100 100 100 100 100 100 100 100 100 100 100 100 100 100 39 39 5 11 5 4 5
100 100 100 100 100 100 100 100 100 100 100 100 100 100 100 100 99 100 69 12 5 5 5 5 5 5 5
100 100 100 100 100 100 100 100 100 100 100 100 100 100 100 100 100 88 5 5 21 7 22 7 5 18 5
100 100 100 100 100 100 100 100 100 100 100 100 76 100 100 100 100 58 62 32 84 83 21 24 9 5 8
100 100 100 100 94 87 48 88 100 100 100 100 97 100 100 100 96 5 55 100 100 98 67 61 28 6 5
100 100 100 100 98 63 100 100 100 100 100 100 100 100 100 100 25 19 61 100 100 100 97 48 18 13 10
100 100 100 100 72 98 100 100 100 99 100 100 100 100 100 100 77 69 99 100 100 100 94 81 82 80 96

GFSFLT2_prec_cloud_099.txt.gz
Cloud_Cover
100 100 100 100 100 100 100 100 100 100 100 98 100 99 100 100 100 100 92 70 76 96 100 100 100 100 100
100 100 100 100 100 100 100 100 100 100 100 100 100 100 99 100 99 100 97 64 71 63 100 100 100 17 22
100 100 100 100 100 100 100 100 100 100 100 100 100 100 100 89 100 100 100 32 30 91 100 100 52 5 100
100 100 100 100 100 100 100 100 100 100 100 100 100 100 100 96 85 100 83 99 100 84 97 6 5 33 20
100 100 100 100 100 100 100 100 100 100 100 100 100 100 100 100 100 100 100 100 100 27 100 100 43 100 97
100 100 100 100 100 100 100 100 100 100 100 100 100 100 100 99 98 100 100 100 100 37 67 53 100 100 73
100 100 100 100 100 100 100 84 85 100 100 100 100 100 100 100 100 100 100 100 100 96 100 100 100 99 39
100 100 100 100 100 100 100 100 99 100 100 100 100 100 100 100 100 100 100 100 100 100 100 100 100 83 80
100 100 100 100 100 100 100 100 100 100 100 100 100 100 100 100 100 100 100 100 100 100 100 100 100 2 2
100 100 100 100 100 100 100 100 100 100 100 100 100 100 100 100 100 100 100 100 100 100 100 63 17 0 0
100 100 100 100 100 100 100 100 100 100 100 100 100 100 100 100 100 100 100 100 100 100 18 100 14 0 5
100 100 100 100 100 100 98 100 100 100 100 100 100 100 100 100 100 100 100 100 97 77 82 98 5 5 5
100 100 100 100 100 100 100 100 100 100 100 100 100 100 100 100 100 98 100 100 100 100 98 85 5 15 5
100 100 100 100 100 100 100 100 100 100 100 100 100 100 100 96 97 86 100 100 100 100 73 28 6 13 14
99 100 100 100 100 100 100 100 100 100 100 100 100 97 25 79 77 66 100 100 100 96 89 12 81 100 52
100 100 100 100 100 100 100 98 100 98 100 100 97 39 93 100 92 99 100 100 100 99 18 39 100 100 100
100 100 100 100 100 100 100 100 100 100 89 92 99 100 100 100 83 100 100 100 100 92 21 88 100 100 100

GFSFLT2_prec_cloud_102.txt.gz
Cloud_Cover
100 100 100 100 100 100 100 100 100 100 100 100 100 100 97 100 100 100 100 100 100 100 93 100 72 65 32
100 100 100 100 100 100 100 100 100 100 100 100 100 100 100 100 100 100 100 100 37 74 100 34 5 5 79
100 100 100 100 100 100 100 100 100 100 100 100 100 100 100 100 100 100 100 100 100 92 93 9 70 100 65
100 100 100 100 100 100 100 100 100 100 100 100 100 100 100 100 100 100 82 97 100 10 95 82 100 42 5
100 100 100 100 100 100 100 100 100 100 100 100 100 100 100 100 100 100 100 92 98 95 96 100 100 100 97
100 100 100 100 100 100 100 100 100 100 100 100 100 100 100 100 100 100 81 25 100 100 100 100 100 100 98
100 100 100 100 100 100 100 100 100 100 100 100 100 100 100 100 98 82 87 100 100 100 100 100 100 100 100
100 100 100 100 100 100 100 100 100 100 100 100 100 100 100 100 100 100 100 100 100 100 100 100 100 100 100
100 100 100 100 100 100 100 100 100 100 100 100 100 100 100 100 100 100 100 100 100 100 100 100 100 100 100
100 100 100 100 100 100 100 100 100 100 100 100 100 100 100 100 100 100 100 100 100 99 98 100 100 100 100
100 100 100 100 100 100 100 100 100 100 100 100 100 100 100 100 100 100 100 100 100 100 100 100 100 100 88
100 100 100 100 100 100 100 100 100 100 100 100 100 100 100 100 100 100 100 100 84 92 100 100 100 100 100
100 100 100 100 100 100 100 100 100 100 100 100 100 100 100 100 100 100 100 100 100 100 100 99 73 85 43
100 100 100 100 100 100 100 100 100 100 100 100 97 86 100 100 100 100 100 73 81 68 64 43 35 13 30
100 100 100 100 100 100 100 100 100 100 100 100 100 100 100 99 100 100 11 81 78 36 46 28 67 20 6
100 100 100 100 100 100 100 100 100 100 100 100 95 92 100 100 72 51 48 57 72 13 5 34 98 29 38
100 100 100 100 100 100 100 100 100 100 100 100 99 100 100 96 85 20 63 51 25 100 7 100 100 93 48

GFSFLT2_prec_cloud_105.txt.gz
Cloud_Cover
100 100 100 100 100 100 100 100 100 100 100 100 100 100 100 100 100 100 100 100 100 100 100 100 99 96 40
100 100 100 100 100 100 100 100 100 100 100 100 100 100 100 100 100 100 100 100 100 100 100 91 100 100 26
100 100 100 100 100 100 100 100 100 100 100 100 100 100 100 100 100 100 100 100 100 100 96 80 26 66 59
100 100 100 100 100 100 100 100 100 100 100 100 100 100 95 100 100 99 100 92 100 100 76 98 95 44 71
100 100 100 100 100 100 100 100 100 100 100 100 100 100 100 100 100 100 100 98 81 99 50 92 94 50 20
100 100 100 100 100 100 100 100 100 100 100 100 100 100 100 100 100 100 100 79 96 71 14 100 77 67 100
100 100 100 100 100 100 100 100 100 100 100 100 100 100 100 100 100 100 100 100 47 18 96 43 95 100 100
100 100 100 100 100 100 100 100 100 100 100 100 100 100 100 100 100 100 100 100 50 35 94 100 100 100 99
100 100 100 100 100 100 100 100 100 100 100 100 100 100 100 100 100 100 100 100 100 97 100 100 100 100 100
100 100 100 100 100 100 100 100 100 100 100 100 100 100 100 100 100 100 100 100 100 100 100 100 78 100 98
100 100 100 100 100 100 100 100 100 100 100 100 100 100 100 100 100 100 100 100 100 100 100 100 100 100 100
100 100 100 100 100 100 100 100 100 100 100 100 100 100 100 100 100 100 100 100 100 100 100 100 100 100 77
100 100 100 100 100 100 100 100 100 100 100 100 100 100 100 100 100 100 100 100 100 100 100 100 100 100 78
100 100 100 100 100 100 100 100 100 100 100 100 100 100 100 100 100 100 100 100 100 100 100 100 100 100 95
100 100 100 100 100 100 100 100 100 100 100 100 100 100 100 95 99 100 100 100 100 100 100 100 100 100 74
100 100 100 100 100 100 100 100 100 100 100 100 100 100 97 98 100 100 100 100 100 100 100 100 100 90 50
100 100 100 100 100 100 100 100 100 100 100 100 100 100 100 100 100 100 100 100 100 100 100 100 95 61 5

GFSFLT2_prec_cloud_108.txt.gz
Cloud_Cover
100 100 100 100 100 100 100 100 100 100 100 100 100 100 100 100 100 100 100 100 100 100 100 100 100 100 98
100 100 100 100 100 100 100 100 100 100 100 100 100 100 100 100 100 100 100 100 100 100 100 100 100 100 100
100 100 100 100 100 100 100 100 100 100 100 100 100 100 100 100 100 100 99 100 100 100 100 100 100 99 85
100 100 100 100 100 100 100 100 100 100 100 100 100 100 100 100 100 84 94 100 98 95 100 100 98 89 76
100 100 100 100 100 100 100 100 100 100 100 100 100 100 100 100 100 100 100 100 100 100 100 60 100 100 99
100 100 100 100 100 100 100 100 100 100 100 100 100 100 100 100 100 100 100 100 87 38 100 100 74 100 99
100 100 100 100 100 100 100 100 100 100 100 100 100 100 100 100 100 100 100 100 94 90 75 35 95 100 100
100 100 100 100 100 100 100 100 100 100 100 100 100 100 100 100 100 100 100 100 100 84 42 83 86 63 26
100 100 100 100 100 100 100 100 100 100 100 100 100 100 100 100 100 100 100 100 100 100 100 68 37 96 38
100 100 100 100 100 100 100 100 100 100 100 100 100 100 100 100 100 100 100 100 100 100 100 85 100 100 100
21 64 89 100 100 100 100 100 100 100 100 100 100 100 100 100 100 100 100 100 100 100 100 100 100 100 100
8 92 100 100 100 100 100 100 100 100 100 100 100 100 100 100 100 100 100 100 100 100 100 100 100 100 98
42 99 100 100 83 100 100 100 100 100 100 100 100 100 100 100 100 100 100 100 100 100 100 100 100 100 100
100 100 100 100 100 100 100 100 100 100 100 100 100 100 100 100 100 100 100 100 100 100 100 100 100 100 100
100 100 100 100 100 100 100 100 100 100 100 100 100 100 100 100 100 100 100 100 100 100 100 100 100 100 100
100 100 100 100 100 100 100 100 100 100 100 100 100 100 100 100 100 100 100 100 100 100 100 100 100 100 100
100 100 100 100 100 100 100 100 100 100 100 100 100 100 100 100 100 100 100 100 100 100 100 100 100 100 100

GFSFLT2_prec_cloud_111.txt.gz
Cloud_Cover
100 100 100 100 100 100 100 100 100 100 100 100 100 100 100 100 100 100 100 100 100 100 100 100 100 100 100
100 100 100 100 100 100 100 100 100 100 100 100 100 100 100 100 100 100 100 100 100 100 100 100 100 100 100
100 100 100 100 100 100 100 100 100 100 100 100 100 100 100 100 100 100 100 100 100 100 100 100 94 100 100
100 100 100 100 100 100 100 100 100 100 100 100 100 100 100 100 100 100 100 100 100 100 100 100 100 100 100
100 100 100 100 100 100 100 100 100 100 100 100 100 100 100 100 100 100 100 100 100 100 100 100 100 100 100
100 100 100 100 100 100 100 100 100 100 100 100 100 100 100 100 100 100 100 100 100 100 100 100 100 100 100
100 100 100 100 100 100 100 100 100 100 100 100 100 100 100 100 100 100 100 100 100 100 100 100 100 100 91
100 100 100 100 100 100 100 100 100 100 100 100 100 100 100 100 100 100 100 100 100 100 100 100 100 100 92
100 100 100 100 100 100 100 100 100 100 100 100 100 100 100 100 100 100 100 100 100 100 100 100 100 99 94
20 42 96 100 100 100 100 100 100 100 100 100 100 100 100 100 100 100 100 100 100 100 100 100 100 100 100
5 5 5 5 5 39 44 88 100 100 100 100 100 100 100 100 100 100 100 100 100 100 100 100 100 100 100
60 69 53 12 28 91 100 100 89 100 100 100 100 100 100 100 100 100 100 100 100 100 100 100 100 100 100
6 6 14 83 100 95 89 100 100 100 100 100 100 100 100 100 100 100 100 100 100 100 100 100 100 100 100
71 87 28 100 100 100 100 100 100 100 100 100 100 100 100 100 100 100 100 100 100 100 100 100 100 100 100
80 8 58 82 100 100 100 100 100 100 100 100 100 100 100 100 100 100 100 100 100 100 100 100 100 100 100
18 27 100 100 100 100 100 100 100 100 100 100 100 100 100 100 100 100 100 100 100 100 100 100 100 100 100
96 64 85 100 100 100 100 100 100 100 100 100 100 100 100 100 100 100 100 100 100 100 100 100 100 100 100

GFSFLT2_prec_cloud_114.txt.gz
Cloud_Cover
90 100 100 100 100 100 100 100 100 100 100 100 100 100 100 100 100 100 100 100 100 100 100 100 100 100 100
100 100 100 100 100 100 100 100 100 100 100 100 100 100 100 100 100 100 100 100 100 100 100 100 100 100 100
100 100 100 100 100 100 100 100 100 100 100 100 100 100 100 100 100 100 100 100 100 100 100 100 100 100 100
100 100 100 100 100 100 100 100 100 100 100 100 100 100 100 100 100 100 100 100 100 100 100 100 100 100 100
100 100 100 100 100 100 100 100 100 100 100 100 100 100 100 100 100 100 100 100 100 100 100 100 100 100 100
100 100 100 100 100 100 100 100 100 100 100 100 100 100 100 100 100 100 100 100 100 100 100 100 100 100 100
100 100 100 100 100 100 100 100 100 100 100 100 100 100 100 100 100 100 100 100 100 100 100 100 100 100 100
100 100 98 100 100 100 100 88 100 100 100 100 100 100 100 100 100 100 100 100 100 100 100 100 100 100 100
100 100 100 100 100 100 100 100 100 100 100 100 100 100 100 100 100 100 100 100 100 100 100 100 100 100 100
97 91 99 100 100 100 39 89 100 100 100 100 100 100 100 100 100 100 100 100 100 100 100 100 100 100 100
5 5 12 5 5 98 98 65 98 100 100 100 100 100 100 100 100 100 100 100 100 100 100 100 100 100 91
5 5 5 5 5 5 19 88 42 43 100 100 100 100 100 100 100 100 100 100 100 100 100 100 100 100 100
5 5 5 5 5 5 5 19 100 100 58 46 100 100 100 100 100 100 100 100 100 100 100 100 100 100 100
5 5 5 5 16 99 100 100 100 100 100 26 98 100 100 100 100 100 100 100 100 100 100 100 100 100 100
5 5 5 5 5 15 93 98 100 100 100 100 100 100 100 100 100 100 100 100 100 100 100 100 100 100 100
5 10 52 22 30 43 86 87 96 100 100 100 100 100 100 100 100 100 100 100 100 100 100 100 100 100 100
6 93 80 80 95 61 66 100 92 100 100 100 100 100 100 100 100 100 100 100 100 100 100 100 100 100 100

GFSFLT2_prec_cloud_117.txt.gz
Cloud_Cover
100 100 100 100 100 100 100 100 100 100 100 100 100 100 100 100 100 100 100 100 100 100 100 100 100 100 100
100 100 100 100 100 100 100 100 100 100 100 100 100 100 100 100 100 100 100 100 100 100 100 100 100 100 100
100 100 100 99 100 100 100 100 100 100 100 100 100 100 100 100 100 100 100 100 100 100 100 100 100 100 100
100 100 100 91 99 88 100 100 100 100 100 100 100 100 100 100 100 100 100 100 100 100 100 100 100 100 100
100 100 100 100 100 100 100 100 100 100 100 100 100 100 100 100 100 100 100 100 100 100 100 100 100 100 100
100 100 100 100 100 100 100 100 100 100 100 100 100 100 100 100 100 100 100 100 100 100 100 100 100 100 100
100 100 100 100 100 100 99 100 100 100 100 100 100 100 100 100 100 100 100 100 100 100 100 100 100 100 100
100 100 93 100 100 100 100 100 100 100 100 100 100 100 100 100 100 100 100 100 100 100 100 100 100 100 100
100 100 100 100 91 58 100 100 100 100 100 100 100 100 100 100 100 100 100 100 100 100 100 100 100 100 100
82 100 100 100 100 100 100 100 100 100 100 100 100 100 100 100 100 100 100 100 100 100 100 100 100 100 100
84 84 35 30 85 100 44 89 100 100 100 100 100 100 100 100 100 100 100 100 100 100 100 100 100 100 100
47 6 18 20 8 24 19 6 50 100 98 94 100 91 100 100 100 100 100 100 100 100 100 100 100 100 100
5 5 10 38 58 12 5 5 5 74 100 100 100 100 100 100 100 100 100 100 100 100 100 100 100 100 100
5 5 5 17 5 10 6 5 61 13 5 31 89 100 100 100 95 100 100 100 100 100 100 100 100 100 100
5 5 8 5 74 55 5 50 96 87 33 23 81 97 100 100 100 100 100 100 100 100 100 100 100 100 100
5 47 5 30 78 26 61 26 63 92 91 66 100 100 100 100 100 100 100 100 100 100 100 100 100 100 100
75 12 5 83 86 11 66 90 100 100 98 81 100 100 100 100 61 91 100 100 100 100 100 100 100 100 100

GFSFLT2_prec_cloud_120.txt.gz
Cloud_Cover
100 100 100 100 100 100 100 100 100 100 100 100 99 100 100 100 100 100 100 100 100 100 100 100 100 100 100
100 97 100 100 100 100 100 100 73 100 100 100 100 99 100 100 100 100 100 100 100 100 100 100 100 100 100
57 99 98 100 100 100 100 100 100 100 95 100 100 100 100 100 100 100 100 100 100 100 100 100 100 100 100
98 99 98 100 100 100 100 100 100 100 100 100 100 100 100 100 100 100 100 100 100 100 100 100 100 100 100
100 100 100 100 100 100 100 100 100 100 100 100 100 100 100 100 100 100 100 100 100 100 100 100 100 100 100
100 100 100 100 100 100 100 100 100 100 100 100 100 100 100 100 100 100 100 100 100 100 100 100 100 100 100
100 100 100 100 100 100 100 100 100 100 45 100 100 100 100 100 100 100 100 100 100 100 100 100 100 100 100
100 100 69 88 100 100 100 100 100 100 100 100 100 100 100 100 100 100 100 100 100 100 100 100 100 100 100
100 100 100 100 98 67 100 100 97 100 100 97 100 100 100 100 100 100 100 100 100 100 100 100 100 100 100
100 94 98 100 100 100 80 100 100 100 100 82 100 100 100 100 100 100 98 100 100 100 100 100 100 100 100
23 25 89 96 100 100 100 100 100 100 100 100 100 100 100 100 100 100 100 100 100 100 100 100 100 100 100
98 99 56 13 13 98 76 86 100 84 100 100 100 100 100 100 100 97 94 100 100 100 100 100 100 100 100
9 46 49 75 64 15 8 73 92 100 98 89 71 100 100 100 100 100 100 100 100 100 100 100 100 100 100
100 100 75 19 5 5 6 5 12 5 45 79 98 98 100 100 100 100 100 100 75 86 100 100 100 100 100
99 76 22 16 25 5 13 30 93 79 11 5 10 48 98 100 100 99 100 100 100 100 100 100 100 100 100
17 5 11 8 23 68 90 94 90 94 98 80 100 72 32 89 81 100 92 100 100 100 100 100 100 100 100
18 5 23 68 98 84 86 93 100 100 100 100 100 100 100 98 5 14 79 88 100 100 100 100 100 100 100

GFSFLT2_prec_cloud_123.txt.gz
Cloud_Cover
97 72 36 100 100 88 92 78 75 79 100 100 100 100 100 100 100 100 100 100 100 100 100 100 100 100 100
100 94 96 100 95 93 52 100 100 100 100 100 100 100 98 100 100 100 100 100 100 100 100 100 100 100 100
72 79 90 30 36 49 39 90 88 100 84 100 100 100 100 100 100 100 100 100 98 100 100 100 100 100 100
63 58 35 53 86 36 46 22 34 99 91 100 100 100 100 100 100 100 100 100 100 100 100 100 100 100 100
87 8 16 62 84 91 87 93 71 84 86 100 100 100 100 100 100 100 100 100 100 100 100 100 100 100 100
100 45 25 5 99 98 44 100 100 100 100 100 99 100 100 100 100 100 100 100 100 100 100 100 100 100 100
48 53 35 25 70 73 100 100 100 100 54 100 100 100 100 100 100 100 100 100 100 100 100 100 100 100 100
96 43 26 67 62 19 40 61 100 100 100 100 100 100 100 100 100 100 100 100 100 100 100 100 100 100 100
5 7 54 63 62 13 96 71 89 94 100 100 100 100 100 100 100 100 100 100 100 100 100 100 100 100 100
100 95 34 6 5 24 13 93 95 98 100 24 100 100 100 100 100 100 100 100 100 100 100 100 100 100 100
100 100 100 77 45 5 5 32 76 100 100 93 82 100 99 100 100 100 100 100 100 100 100 100 100 100 100
5 32 99 98 46 26 5 6 18 100 97 67 75 85 96 100 100 60 100 100 100 100 100 100 100 100 100
7 7 5 50 71 14 5 5 5 5 90 100 79 82 100 100 100 100 64 95 100 100 100 100 100 100 100
100 74 17 17 43 13 25 5 45 21 5 23 100 92 77 100 100 100 100 96 48 100 100 100 100 100 100
50 40 5 5 5 14 21 22 97 100 54 5 5 38 100 100 100 100 100 100 93 86 100 100 100 100 100
5 8 40 14 26 45 60 100 100 100 96 90 69 90 98 79 86 94 100 100 100 100 95 100 100 100 100
77 51 67 65 97 100 100 100 98 100 100 100 82 94 100 96 13 14 12 92 100 100 100 99 99 100 100

GFSFLT2_prec_cloud_126.txt.gz
Cloud_Cover
100 100 100 100 99 88 82 4 27 100 95 100 100 100 100 100 100 100 100 100 100 100 100 100 100 100 100
100 100 100 96 84 12 32 52 67 10 14 29 80 70 100 100 100 100 100 100 100 100 100 100 100 100 100
100 100 100 100 100 100 100 97 37 58 30 6 5 7 100 98 100 100 100 100 100 100 100 100 100 100 100
100 100 100 100 37 93 93 84 51 27 12 60 45 52 83 82 100 100 100 100 100 100 100 100 100 100 100
100 100 100 100 100 85 100 89 39 91 6 36 35 84 42 56 64 100 100 100 100 100 100 100 100 100 100
66 98 100 100 100 96 100 26 75 22 99 59 7 58 5 6 99 100 100 99 100 33 100 100 100 100 100
98 23 66 58 100 100 95 98 99 82 34 69 18 5 8 85 20 5 100 100 100 100 100 100 100 100 100
50 100 100 77 92 100 100 80 98 82 5 57 76 22 96 100 89 100 100 100 96 100 100 100 100 100 100
31 34 39 98 100 93 7 53 60 100 76 19 31 5 41 100 49 27 100 100 97 100 100 100 100 100 100
44 7 44 96 100 90 93 65 85 47 100 15 71 16 10 8 24 100 100 100 100 100 100 100 100 100 100
62 5 5 5 5 5 60 100 98 37 29 43 86 80 62 100 18 12 72 100 97 100 100 100 100 100 100
5 5 5 5 5 5 76 98 33 98 100 7 100 66 94 100 100 44 5 100 100 100 100 100 100 100 100
47 14 14 6 7 13 90 100 78 5 15 85 43 15 87 100 100 100 80 39 48 96 100 100 100 100 100
65 37 52 56 12 6 11 6 64 6 5 5 6 26 74 77 100 91 98 98 13 97 100 100 100 100 100
7 21 33 62 37 20 22 65 87 96 89 90 39 10 63 65 99 98 98 92 73 57 98 100 100 99 100
12 44 85 83 93 87 86 97 100 91 97 100 99 99 85 36 46 54 83 74 34 77 100 100 100 100 100
92 80 88 100 99 90 97 100 99 99 62 98 98 100 100 100 5 9 12 6 81 65 87 100 100 100 100